owner,sensor,date,latitude,longitude,vertical_datum,wind_speed,wind_to_direction,wind_speed_of_gust,qcFlag 
TCOON,ioos:station:TCOON:068:1,2015-02-01T00:00:00Z,27.2970,-97.4049,0.0,5.8,147.0,6.7,'11111222,11111222,11111222' 
TCOON,ioos:station:TCOON:068:1,2015-02-01T00:06:00Z,27.2970,-97.4049,0.0,5.5,150.0,7.2,'11111222,11111222,11111222' 
TCOON,ioos:station:TCOON:068:1,2015-02-01T00:12:00Z,27.2970,-97.4049,0.0,6.2,145.0,7.6,'11111222,11111222,11111222' 
TCOON,ioos:station:TCOON:068:1,2015-02-01T00:18:00Z,27.2970,-97.4049,0.0,6.2,145.0,7.6,'1111122,1111122,1111122' 
TCOON,ioos:station:TCOON:068:1,2015-02-01T00:24:00Z,27.2970,-97.4049,0.0,6.5,150.0,7.7,'11111222,11111222,11111222' 
TCOON,ioos:station:TCOON:068:1,2015-02-01T00:30:00Z,27.2970,-97.4049,0.0,6.2,153.0,7.5,'11111222,11111222,11111222' 
TCOON,ioos:station:TCOON:068:1,2015-02-01T00:36:00Z,27.2970,-97.4049,0.0,6.3,153.0,7.5,'11111222,11111222,11111222' 
TCOON,ioos:station:TCOON:068:1,2015-02-01T00:42:00Z,27.2970,-97.4049,0.0,6.2,153.0,8.0,'11111222,11111222,11111222' 
TCOON,ioos:station:TCOON:068:1,2015-02-01T00:48:00Z,27.2970,-97.4049,0.0,6.0,154.0,7.3,'11111222,11111222,11111222' 
TCOON,ioos:station:TCOON:068:1,2015-02-01T00:54:00Z,27.2970,-97.4049,0.0,5.9,154.0,7.3,'11111222,11111222,11111222' 
TCOON,ioos:station:TCOON:068:1,2015-02-01T01:00:00Z,27.2970,-97.4049,0.0,5.8,153.0,7.7,'11111222,11111222,11111222' 
TCOON,ioos:station:TCOON:068:1,2015-02-01T01:06:00Z,27.2970,-97.4049,0.0,6.0,155.0,7.0,'11111222,11111222,11111222' 
TCOON,ioos:station:TCOON:068:1,2015-02-01T01:12:00Z,27.2970,-97.4049,0.0,5.8,160.0,7.7,'11111222,11111222,11111222' 
TCOON,ioos:station:TCOON:068:1,2015-02-01T01:18:00Z,27.2970,-97.4049,0.0,5.8,160.0,7.7,'1111122,1111122,1111122' 
TCOON,ioos:station:TCOON:068:1,2015-02-01T01:24:00Z,27.2970,-97.4049,0.0,5.2,160.0,6.6,'11111222,11111222,11111222' 
TCOON,ioos:station:TCOON:068:1,2015-02-01T01:30:00Z,27.2970,-97.4049,0.0,6.0,163.0,7.6,'11111222,11111222,11111222' 
TCOON,ioos:station:TCOON:068:1,2015-02-01T01:36:00Z,27.2970,-97.4049,0.0,6.5,164.0,7.4,'11111222,11111222,11111222' 
TCOON,ioos:station:TCOON:068:1,2015-02-01T01:42:00Z,27.2970,-97.4049,0.0,6.1,163.0,7.4,'11111222,11111222,11111222' 
TCOON,ioos:station:TCOON:068:1,2015-02-01T01:48:00Z,27.2970,-97.4049,0.0,6.5,157.0,7.4,'11111222,11111222,11111222' 
TCOON,ioos:station:TCOON:068:1,2015-02-01T01:54:00Z,27.2970,-97.4049,0.0,6.1,157.0,7.9,'11111222,11111222,11111222' 
TCOON,ioos:station:TCOON:068:1,2015-02-01T02:00:00Z,27.2970,-97.4049,0.0,6.6,165.0,8.1,'11111222,11111222,11111222' 
TCOON,ioos:station:TCOON:068:1,2015-02-01T02:06:00Z,27.2970,-97.4049,0.0,5.8,162.0,7.3,'11111222,11111222,11111222' 
TCOON,ioos:station:TCOON:068:1,2015-02-01T02:12:00Z,27.2970,-97.4049,0.0,6.0,166.0,7.1,'11111222,11111222,11111222' 
TCOON,ioos:station:TCOON:068:1,2015-02-01T02:18:00Z,27.2970,-97.4049,0.0,6.0,166.0,7.1,'1111122,1111122,1111122' 
TCOON,ioos:station:TCOON:068:1,2015-02-01T02:24:00Z,27.2970,-97.4049,0.0,5.6,162.0,7.6,'11111222,11111222,11111222' 
TCOON,ioos:station:TCOON:068:1,2015-02-01T02:30:00Z,27.2970,-97.4049,0.0,6.7,156.0,8.1,'11111222,11111222,11111222' 
TCOON,ioos:station:TCOON:068:1,2015-02-01T02:36:00Z,27.2970,-97.4049,0.0,5.8,153.0,7.2,'11111222,11111222,11111222' 
TCOON,ioos:station:TCOON:068:1,2015-02-01T02:42:00Z,27.2970,-97.4049,0.0,6.1,152.0,7.3,'11111222,11111222,11111222' 
TCOON,ioos:station:TCOON:068:1,2015-02-01T02:48:00Z,27.2970,-97.4049,0.0,6.0,150.0,7.5,'11111222,11111222,11111222' 
TCOON,ioos:station:TCOON:068:1,2015-02-01T02:54:00Z,27.2970,-97.4049,0.0,6.8,149.0,8.3,'11111222,11111222,11111222' 
TCOON,ioos:station:TCOON:068:1,2015-02-01T03:00:00Z,27.2970,-97.4049,0.0,6.0,152.0,8.1,'11111222,11111222,11111222' 
TCOON,ioos:station:TCOON:068:1,2015-02-01T03:06:00Z,27.2970,-97.4049,0.0,6.0,152.0,7.7,'11111222,11111222,11111222' 
TCOON,ioos:station:TCOON:068:1,2015-02-01T03:12:00Z,27.2970,-97.4049,0.0,6.1,151.0,7.7,'11111222,11111222,11111222' 
TCOON,ioos:station:TCOON:068:1,2015-02-01T03:18:00Z,27.2970,-97.4049,0.0,6.1,151.0,7.7,'1111122,1111122,1111122' 
TCOON,ioos:station:TCOON:068:1,2015-02-01T03:24:00Z,27.2970,-97.4049,0.0,7.4,145.0,9.0,'11111222,11111222,11111222' 
TCOON,ioos:station:TCOON:068:1,2015-02-01T03:30:00Z,27.2970,-97.4049,0.0,7.6,147.0,8.9,'11111222,11111222,11111222' 
TCOON,ioos:station:TCOON:068:1,2015-02-01T03:36:00Z,27.2970,-97.4049,0.0,8.2,144.0,9.9,'11111222,11111222,11111222' 
TCOON,ioos:station:TCOON:068:1,2015-02-01T03:42:00Z,27.2970,-97.4049,0.0,8.1,145.0,9.7,'11111222,11111222,11111222' 
TCOON,ioos:station:TCOON:068:1,2015-02-01T03:48:00Z,27.2970,-97.4049,0.0,7.0,153.0,9.0,'11111222,11111222,11111222' 
TCOON,ioos:station:TCOON:068:1,2015-02-01T03:54:00Z,27.2970,-97.4049,0.0,7.4,151.0,9.3,'11111222,11111222,11111222' 
TCOON,ioos:station:TCOON:068:1,2015-02-01T04:00:00Z,27.2970,-97.4049,0.0,8.0,147.0,9.8,'11111222,11111222,11111222' 
TCOON,ioos:station:TCOON:068:1,2015-02-01T04:06:00Z,27.2970,-97.4049,0.0,8.1,146.0,10.2,'11111222,11111222,11111222' 
TCOON,ioos:station:TCOON:068:1,2015-02-01T04:12:00Z,27.2970,-97.4049,0.0,8.1,146.0,10.2,'1111122,1111122,1111122' 
TCOON,ioos:station:TCOON:068:1,2015-02-01T04:18:00Z,27.2970,-97.4049,0.0,9.2,146.0,11.0,'11111222,11111222,11111222' 
TCOON,ioos:station:TCOON:068:1,2015-02-01T04:24:00Z,27.2970,-97.4049,0.0,8.4,149.0,10.1,'11111222,11111222,11111222' 
TCOON,ioos:station:TCOON:068:1,2015-02-01T04:30:00Z,27.2970,-97.4049,0.0,8.8,150.0,10.9,'11111222,11111222,11111222' 
TCOON,ioos:station:TCOON:068:1,2015-02-01T04:36:00Z,27.2970,-97.4049,0.0,8.7,149.0,11.4,'11111222,11111222,11111222' 
TCOON,ioos:station:TCOON:068:1,2015-02-01T04:42:00Z,27.2970,-97.4049,0.0,9.3,151.0,11.6,'11111222,11111222,11111222' 
TCOON,ioos:station:TCOON:068:1,2015-02-01T04:48:00Z,27.2970,-97.4049,0.0,9.1,154.0,11.7,'11111222,11111222,11111222' 
TCOON,ioos:station:TCOON:068:1,2015-02-01T04:54:00Z,27.2970,-97.4049,0.0,10.0,152.0,13.3,'11111222,11111222,11111222' 
TCOON,ioos:station:TCOON:068:1,2015-02-01T05:00:00Z,27.2970,-97.4049,0.0,12.3,146.0,14.8,'11111222,11111222,11111222' 
TCOON,ioos:station:TCOON:068:1,2015-02-01T05:06:00Z,27.2970,-97.4049,0.0,12.8,144.0,14.8,'11111222,11111222,11111222' 
TCOON,ioos:station:TCOON:068:1,2015-02-01T05:12:00Z,27.2970,-97.4049,0.0,13.7,149.0,16.1,'11111222,11111222,11111222' 
TCOON,ioos:station:TCOON:068:1,2015-02-01T05:18:00Z,27.2970,-97.4049,0.0,13.7,149.0,16.1,'1111122,1111122,1111122' 
TCOON,ioos:station:TCOON:068:1,2015-02-01T05:24:00Z,27.2970,-97.4049,0.0,12.8,149.0,15.9,'11111222,11111222,11111222' 
TCOON,ioos:station:TCOON:068:1,2015-02-01T05:30:00Z,27.2970,-97.4049,0.0,10.7,152.0,14.3,'11111222,11111222,11111222' 
TCOON,ioos:station:TCOON:068:1,2015-02-01T05:36:00Z,27.2970,-97.4049,0.0,11.6,153.0,13.6,'11111222,11111222,11111222' 
TCOON,ioos:station:TCOON:068:1,2015-02-01T05:42:00Z,27.2970,-97.4049,0.0,12.1,153.0,14.4,'11111222,11111222,11111222' 
TCOON,ioos:station:TCOON:068:1,2015-02-01T05:48:00Z,27.2970,-97.4049,0.0,11.4,154.0,14.3,'11111222,11111222,11111222' 
TCOON,ioos:station:TCOON:068:1,2015-02-01T05:54:00Z,27.2970,-97.4049,0.0,10.5,154.0,14.0,'11111222,11111222,11111222' 
TCOON,ioos:station:TCOON:068:1,2015-02-01T06:00:00Z,27.2970,-97.4049,0.0,10.6,157.0,13.9,'11111222,11111222,11111222' 
TCOON,ioos:station:TCOON:068:1,2015-02-01T06:06:00Z,27.2970,-97.4049,0.0,9.9,161.0,12.6,'11111222,11111222,11111222' 
TCOON,ioos:station:TCOON:068:1,2015-02-01T06:12:00Z,27.2970,-97.4049,0.0,10.2,167.0,12.2,'11111222,11111222,11111222' 
TCOON,ioos:station:TCOON:068:1,2015-02-01T06:18:00Z,27.2970,-97.4049,0.0,10.2,167.0,12.2,'1111122,1111122,1111122' 
TCOON,ioos:station:TCOON:068:1,2015-02-01T06:24:00Z,27.2970,-97.4049,0.0,9.9,187.0,11.5,'11111222,11111222,11111222' 
TCOON,ioos:station:TCOON:068:1,2015-02-01T06:30:00Z,27.2970,-97.4049,0.0,8.3,186.0,10.6,'11111222,11111222,11111222' 
TCOON,ioos:station:TCOON:068:1,2015-02-01T06:36:00Z,27.2970,-97.4049,0.0,8.3,189.0,10.3,'11111222,11111222,11111222' 
TCOON,ioos:station:TCOON:068:1,2015-02-01T06:42:00Z,27.2970,-97.4049,0.0,8.5,183.0,9.6,'11111222,11111222,11111222' 
TCOON,ioos:station:TCOON:068:1,2015-02-01T06:48:00Z,27.2970,-97.4049,0.0,8.0,177.0,9.9,'11111222,11111222,11111222' 
TCOON,ioos:station:TCOON:068:1,2015-02-01T06:54:00Z,27.2970,-97.4049,0.0,8.8,177.0,10.1,'11111222,11111222,11111222' 
TCOON,ioos:station:TCOON:068:1,2015-02-01T07:00:00Z,27.2970,-97.4049,0.0,8.2,179.0,10.3,'11111222,11111222,11111222' 
TCOON,ioos:station:TCOON:068:1,2015-02-01T07:06:00Z,27.2970,-97.4049,0.0,9.2,187.0,10.9,'11111222,11111222,11111222' 
TCOON,ioos:station:TCOON:068:1,2015-02-01T07:12:00Z,27.2970,-97.4049,0.0,9.5,192.0,11.0,'11111222,11111222,11111222' 
TCOON,ioos:station:TCOON:068:1,2015-02-01T07:18:00Z,27.2970,-97.4049,0.0,9.5,192.0,11.0,'1111122,1111122,1111122' 
TCOON,ioos:station:TCOON:068:1,2015-02-01T07:24:00Z,27.2970,-97.4049,0.0,8.1,191.0,9.6,'11111222,11111222,11111222' 
TCOON,ioos:station:TCOON:068:1,2015-02-01T07:30:00Z,27.2970,-97.4049,0.0,8.0,186.0,9.0,'11111222,11111222,11111222' 
TCOON,ioos:station:TCOON:068:1,2015-02-01T07:36:00Z,27.2970,-97.4049,0.0,7.3,181.0,9.3,'11111222,11111222,11111222' 
TCOON,ioos:station:TCOON:068:1,2015-02-01T07:42:00Z,27.2970,-97.4049,0.0,6.4,175.0,8.0,'11111222,11111222,11111222' 
TCOON,ioos:station:TCOON:068:1,2015-02-01T07:48:00Z,27.2970,-97.4049,0.0,6.9,171.0,8.0,'11111222,11111222,11111222' 
TCOON,ioos:station:TCOON:068:1,2015-02-01T07:54:00Z,27.2970,-97.4049,0.0,7.4,162.0,8.8,'11111222,11111222,11111222' 
TCOON,ioos:station:TCOON:068:1,2015-02-01T08:00:00Z,27.2970,-97.4049,0.0,8.6,161.0,10.8,'11111222,11111222,11111222' 
TCOON,ioos:station:TCOON:068:1,2015-02-01T08:06:00Z,27.2970,-97.4049,0.0,9.1,175.0,10.9,'11111222,11111222,11111222' 
TCOON,ioos:station:TCOON:068:1,2015-02-01T08:12:00Z,27.2970,-97.4049,0.0,7.7,194.0,10.3,'11111222,11111222,11111222' 
TCOON,ioos:station:TCOON:068:1,2015-02-01T08:18:00Z,27.2970,-97.4049,0.0,7.7,194.0,10.3,'1111122,1111122,1111122' 
TCOON,ioos:station:TCOON:068:1,2015-02-01T08:24:00Z,27.2970,-97.4049,0.0,6.6,200.0,8.0,'11111222,11111222,11111222' 
TCOON,ioos:station:TCOON:068:1,2015-02-01T08:30:00Z,27.2970,-97.4049,0.0,5.4,198.0,6.7,'11111222,11111222,11111222' 
TCOON,ioos:station:TCOON:068:1,2015-02-01T08:36:00Z,27.2970,-97.4049,0.0,4.9,181.0,5.9,'11111222,11111222,11111222' 
TCOON,ioos:station:TCOON:068:1,2015-02-01T08:42:00Z,27.2970,-97.4049,0.0,4.0,181.0,5.3,'11111222,11111222,11111222' 
TCOON,ioos:station:TCOON:068:1,2015-02-01T08:48:00Z,27.2970,-97.4049,0.0,3.7,179.0,4.9,'11111222,11111222,11111222' 
TCOON,ioos:station:TCOON:068:1,2015-02-01T08:54:00Z,27.2970,-97.4049,0.0,4.0,174.0,4.7,'11111222,11111222,11111222' 
TCOON,ioos:station:TCOON:068:1,2015-02-01T09:00:00Z,27.2970,-97.4049,0.0,3.8,181.0,5.2,'11111222,11111222,11111222' 
TCOON,ioos:station:TCOON:068:1,2015-02-01T09:06:00Z,27.2970,-97.4049,0.0,4.5,184.0,5.1,'11111222,11111222,11111222' 
TCOON,ioos:station:TCOON:068:1,2015-02-01T09:12:00Z,27.2970,-97.4049,0.0,4.2,189.0,5.3,'11111222,11111222,11111222' 
TCOON,ioos:station:TCOON:068:1,2015-02-01T09:18:00Z,27.2970,-97.4049,0.0,4.2,189.0,5.3,'1111122,1111122,1111122' 
TCOON,ioos:station:TCOON:068:1,2015-02-01T09:24:00Z,27.2970,-97.4049,0.0,4.6,201.0,5.0,'11111222,11111222,11111222' 
TCOON,ioos:station:TCOON:068:1,2015-02-01T09:30:00Z,27.2970,-97.4049,0.0,4.9,209.0,5.4,'11111222,11111222,11111222' 
TCOON,ioos:station:TCOON:068:1,2015-02-01T09:36:00Z,27.2970,-97.4049,0.0,4.9,205.0,5.9,'11111222,11111222,11111222' 
TCOON,ioos:station:TCOON:068:1,2015-02-01T09:42:00Z,27.2970,-97.4049,0.0,4.5,207.0,5.9,'11111222,11111222,11111222' 
TCOON,ioos:station:TCOON:068:1,2015-02-01T09:48:00Z,27.2970,-97.4049,0.0,4.6,204.0,5.3,'11111222,11111222,11111222' 
TCOON,ioos:station:TCOON:068:1,2015-02-01T09:54:00Z,27.2970,-97.4049,0.0,4.5,193.0,5.2,'11111222,11111222,11111222' 
TCOON,ioos:station:TCOON:068:1,2015-02-01T10:00:00Z,27.2970,-97.4049,0.0,4.3,192.0,5.0,'11111222,11111222,11111222' 
TCOON,ioos:station:TCOON:068:1,2015-02-01T10:06:00Z,27.2970,-97.4049,0.0,4.2,198.0,4.7,'11111222,11111222,11111222' 
TCOON,ioos:station:TCOON:068:1,2015-02-01T10:12:00Z,27.2970,-97.4049,0.0,4.2,198.0,4.7,'1111122,1111122,1111122' 
TCOON,ioos:station:TCOON:068:1,2015-02-01T10:18:00Z,27.2970,-97.4049,0.0,4.2,202.0,4.7,'11111222,11111222,11111222' 
TCOON,ioos:station:TCOON:068:1,2015-02-01T10:24:00Z,27.2970,-97.4049,0.0,3.8,200.0,4.4,'11111222,11111222,11111222' 
TCOON,ioos:station:TCOON:068:1,2015-02-01T10:30:00Z,27.2970,-97.4049,0.0,3.4,196.0,4.1,'11111222,11111222,11111222' 
TCOON,ioos:station:TCOON:068:1,2015-02-01T10:36:00Z,27.2970,-97.4049,0.0,2.9,192.0,3.5,'11111222,11111222,11111222' 
TCOON,ioos:station:TCOON:068:1,2015-02-01T10:42:00Z,27.2970,-97.4049,0.0,2.8,194.0,3.3,'11111222,11111222,11111222' 
TCOON,ioos:station:TCOON:068:1,2015-02-01T10:48:00Z,27.2970,-97.4049,0.0,2.6,181.0,3.1,'11111222,11111222,11111222' 
TCOON,ioos:station:TCOON:068:1,2015-02-01T10:54:00Z,27.2970,-97.4049,0.0,3.0,174.0,3.5,'11111222,11111222,11111222' 
TCOON,ioos:station:TCOON:068:1,2015-02-01T11:00:00Z,27.2970,-97.4049,0.0,3.6,183.0,4.0,'11111222,11111222,11111222' 
TCOON,ioos:station:TCOON:068:1,2015-02-01T11:06:00Z,27.2970,-97.4049,0.0,3.9,180.0,4.4,'11111222,11111222,11111222' 
TCOON,ioos:station:TCOON:068:1,2015-02-01T11:12:00Z,27.2970,-97.4049,0.0,3.7,175.0,4.5,'11111222,11111222,11111222' 
TCOON,ioos:station:TCOON:068:1,2015-02-01T11:18:00Z,27.2970,-97.4049,0.0,3.7,175.0,4.5,'1111122,1111122,1111122' 
TCOON,ioos:station:TCOON:068:1,2015-02-01T11:24:00Z,27.2970,-97.4049,0.0,3.6,185.0,4.0,'11111222,11111222,11111222' 
TCOON,ioos:station:TCOON:068:1,2015-02-01T11:30:00Z,27.2970,-97.4049,0.0,4.0,198.0,4.5,'11111222,11111222,11111222' 
TCOON,ioos:station:TCOON:068:1,2015-02-01T11:36:00Z,27.2970,-97.4049,0.0,3.7,194.0,4.4,'11111222,11111222,11111222' 
TCOON,ioos:station:TCOON:068:1,2015-02-01T11:42:00Z,27.2970,-97.4049,0.0,3.6,195.0,4.2,'11111222,11111222,11111222' 
TCOON,ioos:station:TCOON:068:1,2015-02-01T11:48:00Z,27.2970,-97.4049,0.0,3.4,209.0,4.2,'11111222,11111222,11111222' 
TCOON,ioos:station:TCOON:068:1,2015-02-01T11:54:00Z,27.2970,-97.4049,0.0,3.1,225.0,3.5,'11111222,11111222,11111222' 
TCOON,ioos:station:TCOON:068:1,2015-02-01T12:00:00Z,27.2970,-97.4049,0.0,2.5,218.0,3.2,'11111222,11111222,11111222' 
TCOON,ioos:station:TCOON:068:1,2015-02-01T12:06:00Z,27.2970,-97.4049,0.0,2.4,214.0,2.9,'11111222,11111222,11111222' 
TCOON,ioos:station:TCOON:068:1,2015-02-01T12:12:00Z,27.2970,-97.4049,0.0,1.8,195.0,2.4,'11111222,11111222,11111222' 
TCOON,ioos:station:TCOON:068:1,2015-02-01T12:18:00Z,27.2970,-97.4049,0.0,1.8,195.0,2.4,'1111122,1111122,1111122' 
TCOON,ioos:station:TCOON:068:1,2015-02-01T12:24:00Z,27.2970,-97.4049,0.0,2.2,175.0,2.5,'11111222,11111222,11111222' 
TCOON,ioos:station:TCOON:068:1,2015-02-01T12:30:00Z,27.2970,-97.4049,0.0,2.2,162.0,2.4,'11111222,11111222,11111222' 
TCOON,ioos:station:TCOON:068:1,2015-02-01T12:36:00Z,27.2970,-97.4049,0.0,2.3,161.0,2.6,'11111222,11111222,11111222' 
TCOON,ioos:station:TCOON:068:1,2015-02-01T12:42:00Z,27.2970,-97.4049,0.0,1.9,168.0,2.5,'11111222,11111222,11111222' 
TCOON,ioos:station:TCOON:068:1,2015-02-01T12:48:00Z,27.2970,-97.4049,0.0,1.6,176.0,2.0,'11111222,11111222,11111222' 
TCOON,ioos:station:TCOON:068:1,2015-02-01T12:54:00Z,27.2970,-97.4049,0.0,1.9,168.0,2.1,'11111222,11111222,11111222' 
TCOON,ioos:station:TCOON:068:1,2015-02-01T13:00:00Z,27.2970,-97.4049,0.0,2.3,155.0,2.6,'11111222,11111222,11111222' 
TCOON,ioos:station:TCOON:068:1,2015-02-01T13:06:00Z,27.2970,-97.4049,0.0,2.1,140.0,2.5,'11111222,11111222,11111222' 
TCOON,ioos:station:TCOON:068:1,2015-02-01T13:12:00Z,27.2970,-97.4049,0.0,2.6,131.0,2.9,'11111222,11111222,11111222' 
TCOON,ioos:station:TCOON:068:1,2015-02-01T13:18:00Z,27.2970,-97.4049,0.0,2.6,131.0,2.9,'1111122,1111122,1111122' 
TCOON,ioos:station:TCOON:068:1,2015-02-01T13:24:00Z,27.2970,-97.4049,0.0,1.9,129.0,2.3,'11111222,11111222,11111222' 
TCOON,ioos:station:TCOON:068:1,2015-02-01T13:30:00Z,27.2970,-97.4049,0.0,2.2,131.0,2.6,'11111222,11111222,11111222' 
TCOON,ioos:station:TCOON:068:1,2015-02-01T13:36:00Z,27.2970,-97.4049,0.0,2.5,123.0,2.8,'11111222,11111222,11111222' 
TCOON,ioos:station:TCOON:068:1,2015-02-01T13:42:00Z,27.2970,-97.4049,0.0,2.1,99.0,2.8,'11111222,11111222,11111222' 
TCOON,ioos:station:TCOON:068:1,2015-02-01T13:48:00Z,27.2970,-97.4049,0.0,1.5,70.0,2.2,'11111222,11111222,11111222' 
TCOON,ioos:station:TCOON:068:1,2015-02-01T13:54:00Z,27.2970,-97.4049,0.0,1.6,48.0,1.8,'11111222,11111222,11111222' 
TCOON,ioos:station:TCOON:068:1,2015-02-01T14:00:00Z,27.2970,-97.4049,0.0,1.6,43.0,1.9,'11111222,11111222,11111222' 
TCOON,ioos:station:TCOON:068:1,2015-02-01T14:06:00Z,27.2970,-97.4049,0.0,2.0,22.0,2.1,'11111222,11111222,11111222' 
TCOON,ioos:station:TCOON:068:1,2015-02-01T14:12:00Z,27.2970,-97.4049,0.0,1.3,27.0,2.1,'11111222,11111222,11111222' 
TCOON,ioos:station:TCOON:068:1,2015-02-01T14:18:00Z,27.2970,-97.4049,0.0,1.3,27.0,2.1,'1111122,1111122,1111122' 
TCOON,ioos:station:TCOON:068:1,2015-02-01T14:24:00Z,27.2970,-97.4049,0.0,0.6,58.0,0.7,'11111222,11111222,11111222' 
TCOON,ioos:station:TCOON:068:1,2015-02-01T14:30:00Z,27.2970,-97.4049,0.0,1.1,13.0,1.2,'11111222,11111222,11111222' 
TCOON,ioos:station:TCOON:068:1,2015-02-01T14:36:00Z,27.2970,-97.4049,0.0,1.2,62.0,1.6,'11111222,11111222,11111222' 
TCOON,ioos:station:TCOON:068:1,2015-02-01T14:42:00Z,27.2970,-97.4049,0.0,1.3,70.0,1.7,'11111222,11111222,11111222' 
TCOON,ioos:station:TCOON:068:1,2015-02-01T14:48:00Z,27.2970,-97.4049,0.0,1.4,67.0,1.5,'11111222,11111222,11111222' 
TCOON,ioos:station:TCOON:068:1,2015-02-01T14:54:00Z,27.2970,-97.4049,0.0,1.7,89.0,1.8,'11111222,11111222,11111222' 
TCOON,ioos:station:TCOON:068:1,2015-02-01T15:00:00Z,27.2970,-97.4049,0.0,1.6,92.0,1.8,'11111222,11111222,11111222' 
TCOON,ioos:station:TCOON:068:1,2015-02-01T15:06:00Z,27.2970,-97.4049,0.0,1.4,91.0,1.6,'11111222,11111222,11111222' 
TCOON,ioos:station:TCOON:068:1,2015-02-01T15:12:00Z,27.2970,-97.4049,0.0,1.4,91.0,1.6,'1111122,1111122,1111122' 
TCOON,ioos:station:TCOON:068:1,2015-02-01T15:18:00Z,27.2970,-97.4049,0.0,1.6,90.0,1.7,'11111222,11111222,11111222' 
TCOON,ioos:station:TCOON:068:1,2015-02-01T15:24:00Z,27.2970,-97.4049,0.0,1.7,100.0,2.0,'11111222,11111222,11111222' 
TCOON,ioos:station:TCOON:068:1,2015-02-01T15:30:00Z,27.2970,-97.4049,0.0,1.6,96.0,1.9,'11111222,11111222,11111222' 
TCOON,ioos:station:TCOON:068:1,2015-02-01T15:36:00Z,27.2970,-97.4049,0.0,1.8,112.0,2.2,'11111222,11111222,11111222' 
TCOON,ioos:station:TCOON:068:1,2015-02-01T15:42:00Z,27.2970,-97.4049,0.0,1.6,142.0,2.1,'11111222,11111222,11111222' 
TCOON,ioos:station:TCOON:068:1,2015-02-01T15:48:00Z,27.2970,-97.4049,0.0,2.1,136.0,2.5,'11111222,11111222,11111222' 
TCOON,ioos:station:TCOON:068:1,2015-02-01T15:54:00Z,27.2970,-97.4049,0.0,2.5,144.0,3.0,'11111222,11111222,11111222' 
TCOON,ioos:station:TCOON:068:1,2015-02-01T16:00:00Z,27.2970,-97.4049,0.0,1.8,160.0,2.7,'11111222,11111222,11111222' 
TCOON,ioos:station:TCOON:068:1,2015-02-01T16:06:00Z,27.2970,-97.4049,0.0,2.3,160.0,2.9,'11111222,11111222,11111222' 
TCOON,ioos:station:TCOON:068:1,2015-02-01T16:12:00Z,27.2970,-97.4049,0.0,2.6,163.0,3.5,'11111222,11111222,11111222' 
TCOON,ioos:station:TCOON:068:1,2015-02-01T16:18:00Z,27.2970,-97.4049,0.0,2.6,163.0,3.5,'1111122,1111122,1111122' 
TCOON,ioos:station:TCOON:068:1,2015-02-01T16:24:00Z,27.2970,-97.4049,0.0,3.3,161.0,4.4,'11111222,11111222,11111222' 
TCOON,ioos:station:TCOON:068:1,2015-02-01T16:30:00Z,27.2970,-97.4049,0.0,3.4,167.0,4.6,'11111222,11111222,11111222' 
TCOON,ioos:station:TCOON:068:1,2015-02-01T16:36:00Z,27.2970,-97.4049,0.0,3.5,164.0,4.6,'11111222,11111222,11111222' 
TCOON,ioos:station:TCOON:068:1,2015-02-01T16:42:00Z,27.2970,-97.4049,0.0,3.7,162.0,4.8,'11111222,11111222,11111222' 
TCOON,ioos:station:TCOON:068:1,2015-02-01T16:48:00Z,27.2970,-97.4049,0.0,4.0,165.0,5.4,'11111222,11111222,11111222' 
TCOON,ioos:station:TCOON:068:1,2015-02-01T16:54:00Z,27.2970,-97.4049,0.0,4.2,164.0,5.4,'11111222,11111222,11111222' 
TCOON,ioos:station:TCOON:068:1,2015-02-01T17:00:00Z,27.2970,-97.4049,0.0,3.5,137.0,4.8,'11111222,11111222,11111222' 
TCOON,ioos:station:TCOON:068:1,2015-02-01T17:06:00Z,27.2970,-97.4049,0.0,3.7,138.0,4.4,'11111222,11111222,11111222' 
TCOON,ioos:station:TCOON:068:1,2015-02-01T17:12:00Z,27.2970,-97.4049,0.0,3.7,138.0,4.4,'1111122,1111122,1111122' 
TCOON,ioos:station:TCOON:068:1,2015-02-01T17:18:00Z,27.2970,-97.4049,0.0,3.6,137.0,4.3,'11111222,11111222,11111222' 
TCOON,ioos:station:TCOON:068:1,2015-02-01T17:24:00Z,27.2970,-97.4049,0.0,3.0,137.0,4.0,'11111222,11111222,11111222' 
TCOON,ioos:station:TCOON:068:1,2015-02-01T17:30:00Z,27.2970,-97.4049,0.0,3.5,141.0,4.1,'11111222,11111222,11111222' 
TCOON,ioos:station:TCOON:068:1,2015-02-01T17:36:00Z,27.2970,-97.4049,0.0,3.2,139.0,4.2,'11111222,11111222,11111222' 
TCOON,ioos:station:TCOON:068:1,2015-02-01T17:42:00Z,27.2970,-97.4049,0.0,3.0,142.0,4.0,'11111222,11111222,11111222' 
TCOON,ioos:station:TCOON:068:1,2015-02-01T17:48:00Z,27.2970,-97.4049,0.0,2.7,128.0,3.7,'11111222,11111222,11111222' 
TCOON,ioos:station:TCOON:068:1,2015-02-01T17:54:00Z,27.2970,-97.4049,0.0,3.0,117.0,3.7,'11111222,11111222,11111222' 
TCOON,ioos:station:TCOON:068:1,2015-02-01T18:00:00Z,27.2970,-97.4049,0.0,2.6,125.0,3.3,'11111222,11111222,11111222' 
TCOON,ioos:station:TCOON:068:1,2015-02-01T18:06:00Z,27.2970,-97.4049,0.0,3.7,117.0,4.7,'11111222,11111222,11111222' 
TCOON,ioos:station:TCOON:068:1,2015-02-01T18:12:00Z,27.2970,-97.4049,0.0,3.7,117.0,4.7,'1111122,1111122,1111122' 
TCOON,ioos:station:TCOON:068:1,2015-02-01T18:18:00Z,27.2970,-97.4049,0.0,3.6,117.0,4.3,'11111222,11111222,11111222' 
TCOON,ioos:station:TCOON:068:1,2015-02-01T18:24:00Z,27.2970,-97.4049,0.0,3.9,125.0,4.6,'11111222,11111222,11111222' 
TCOON,ioos:station:TCOON:068:1,2015-02-01T18:30:00Z,27.2970,-97.4049,0.0,3.2,118.0,4.2,'11111222,11111222,11111222' 
TCOON,ioos:station:TCOON:068:1,2015-02-01T18:36:00Z,27.2970,-97.4049,0.0,3.0,118.0,3.7,'11111222,11111222,11111222' 
TCOON,ioos:station:TCOON:068:1,2015-02-01T18:42:00Z,27.2970,-97.4049,0.0,3.0,121.0,4.5,'11111222,11111222,11111222' 
TCOON,ioos:station:TCOON:068:1,2015-02-01T18:48:00Z,27.2970,-97.4049,0.0,2.2,106.0,3.5,'11111222,11111222,11111222' 
TCOON,ioos:station:TCOON:068:1,2015-02-01T18:54:00Z,27.2970,-97.4049,0.0,2.9,104.0,3.6,'11111222,11111222,11111222' 
TCOON,ioos:station:TCOON:068:1,2015-02-01T19:00:00Z,27.2970,-97.4049,0.0,2.8,105.0,3.5,'11111222,11111222,11111222' 
TCOON,ioos:station:TCOON:068:1,2015-02-01T19:06:00Z,27.2970,-97.4049,0.0,2.9,101.0,3.4,'11111222,11111222,11111222' 
TCOON,ioos:station:TCOON:068:1,2015-02-01T19:12:00Z,27.2970,-97.4049,0.0,3.4,95.0,4.0,'11111222,11111222,11111222' 
TCOON,ioos:station:TCOON:068:1,2015-02-01T19:18:00Z,27.2970,-97.4049,0.0,3.4,95.0,4.0,'1111122,1111122,1111122' 
TCOON,ioos:station:TCOON:068:1,2015-02-01T19:24:00Z,27.2970,-97.4049,0.0,3.3,102.0,3.7,'11111222,11111222,11111222' 
TCOON,ioos:station:TCOON:068:1,2015-02-01T19:30:00Z,27.2970,-97.4049,0.0,3.1,103.0,3.9,'11111222,11111222,11111222' 
TCOON,ioos:station:TCOON:068:1,2015-02-01T19:36:00Z,27.2970,-97.4049,0.0,2.8,104.0,3.4,'11111222,11111222,11111222' 
TCOON,ioos:station:TCOON:068:1,2015-02-01T19:42:00Z,27.2970,-97.4049,0.0,2.7,92.0,3.4,'11111222,11111222,11111222' 
TCOON,ioos:station:TCOON:068:1,2015-02-01T19:48:00Z,27.2970,-97.4049,0.0,2.2,91.0,2.7,'11111222,11111222,11111222' 
TCOON,ioos:station:TCOON:068:1,2015-02-01T19:54:00Z,27.2970,-97.4049,0.0,2.9,102.0,3.2,'11111222,11111222,11111222' 
TCOON,ioos:station:TCOON:068:1,2015-02-01T20:00:00Z,27.2970,-97.4049,0.0,3.2,105.0,3.7,'11111222,11111222,11111222' 
TCOON,ioos:station:TCOON:068:1,2015-02-01T20:06:00Z,27.2970,-97.4049,0.0,3.0,106.0,4.2,'11111222,11111222,11111222' 
TCOON,ioos:station:TCOON:068:1,2015-02-01T20:12:00Z,27.2970,-97.4049,0.0,3.1,86.0,3.6,'11111222,11111222,11111222' 
TCOON,ioos:station:TCOON:068:1,2015-02-01T20:18:00Z,27.2970,-97.4049,0.0,3.1,86.0,3.6,'1111122,1111122,1111122' 